Location: Paris
(48.6709°N, 2.3750°E)
Time: 10:38:51
(UTC+02:00)

LO-87 - Pass Details

Date: 04 July 2022
Orbit: 450 x 466 km, 97.4° (Epoch: 17 August)

Event Time Altitude Azimuth Distance (km) Brightness Sun altitude
Exits shadow 00:20:50 15° 99° (E) 1,342 ? -15.4°
Maximum altitude 00:22:25 20° 65° (ENE) 1,147 ? -15.5°
Drops below altitude 10° 00:24:59 10° 18° (NNE) 1,630 ? -15.7°
Sets 00:27:26 0° 0° (N) 2,516 ? -15.8°
